DateTimeUTC,F1_A11,F1_S11,BsB_S11,BsG_S11,BsR_S11,BbsB_S11,BbsG_S11,BbsR_S11,BaB_A11,BaG_A11,BaR_A11,Tu_S11,T_S11,Uu_S11,U_S11,P_S11,T1_A11
2021-06-08T08:00:00Z,00000200,20000000,,,,,,,-000.21,0000.33,0000.49,15.9,23.1,01.6,01.0,0670.0,30.9
2021-06-08T08:01:00Z,00000200,20000000,,,,,,,0000.22,-000.05,-000.04,15.9,23.1,01.6,01.0,0670.0,30.9
2021-06-08T08:02:00Z,00000200,20000000,,,,,,,0000.08,0000.16,0000.17,15.9,23.1,01.6,01.0,0670.0,30.9
2021-06-08T08:03:00Z,00000200,60000000,,,,,,,0000.30,0000.34,0000.12,15.9,23.1,01.6,01.0,0670.0,30.9
2021-06-08T08:04:00Z,00000200,41000000,0000.09,0000.43,-000.26,-000.13,0000.14,-000.02,0000.56,0000.44,0000.34,16.1,22.9,01.8,01.2,0671.0,30.9
2021-06-08T08:05:00Z,00000200,00000000,0000.38,0000.16,0000.22,0000.55,0000.20,0000.20,-000.04,0000.09,-000.21,16.1,22.9,01.9,01.3,0671.0,30.9
2021-06-08T08:06:00Z,00000200,00000000,0000.10,0000.30,0000.08,0000.67,0000.15,-000.03,-000.01,-000.03,0000.35,16.1,22.9,01.9,01.3,0671.0,30.9
2021-06-08T08:07:00Z,00000200,01000000,-000.00,0000.11,0000.31,0000.14,-000.03,0000.03,0000.24,0000.22,-000.02,16.1,22.8,02.0,01.3,0671.0,30.9
2021-06-08T08:08:00Z,00000200,01000000,0000.71,-000.09,0000.23,0000.30,0000.09,0000.19,0000.14,-000.36,0000.06,16.1,22.8,02.0,01.3,0671.0,30.9
2021-06-08T08:09:00Z,00000200,00000000,0000.20,0000.05,0000.23,0000.66,0000.24,-000.07,0000.19,0000.43,-000.17,16.1,22.8,02.0,01.3,0671.0,30.9
2021-06-08T08:10:00Z,00000200,00000000,0000.86,0000.24,-000.06,0000.36,0000.13,-000.08,-000.22,-000.22,0000.22,16.1,22.8,02.0,01.3,0671.1,30.9
2021-06-08T08:11:00Z,00000200,00000000,0000.50,0000.16,0000.27,0000.30,0000.31,-000.09,0000.03,-000.01,0000.26,16.1,22.8,02.0,01.3,0671.1,30.9
2021-06-08T08:12:00Z,00000200,01000000,0000.68,0000.14,0000.09,0000.20,0000.36,0000.02,0000.16,0000.42,0000.06,16.1,22.8,02.0,01.3,0671.1,30.9
2021-06-08T08:13:00Z,00000200,00000000,-000.01,0000.08,0000.24,0000.64,0000.23,0000.18,0000.00,0000.08,-000.01,16.1,22.8,02.1,01.4,0671.1,30.9
2021-06-08T08:14:00Z,00000200,00000000,-000.07,0000.34,0000.28,0000.58,0000.02,0000.21,0000.35,0000.25,0000.08,16.1,22.8,02.1,01.4,0671.1,30.9
2021-06-08T08:15:00Z,00000200,00000000,0000.03,0000.02,-000.05,0001.10,0000.16,0000.29,0000.21,-000.18,-000.06,16.1,22.8,02.1,01.4,0671.0,30.9
2021-06-08T08:16:00Z,00000200,00000000,-000.04,0000.25,0000.15,0000.78,0000.23,0000.03,-000.03,0000.32,-000.12,16.2,22.8,02.2,01.5,0671.0,30.9
2021-06-08T08:17:00Z,00000200,00000000,0000.19,0000.19,0000.34,-000.26,0000.04,0000.22,-000.07,0000.07,0000.40,16.2,22.8,02.2,01.5,0671.0,30.9
2021-06-08T08:18:00Z,00000200,00000000,0000.52,0000.10,0000.02,0000.01,-000.03,-000.04,0000.39,-000.07,-000.07,16.2,22.8,02.3,01.5,0671.0,30.9
2021-06-08T08:19:00Z,00000200,00000000,0000.85,0000.00,0000.19,0000.40,0000.42,0000.02,-000.05,0000.67,0000.50,16.2,22.8,02.2,01.5,0671.0,30.9
2021-06-08T08:20:00Z,00000200,00000000,0000.42,0000.31,0000.16,0000.39,0000.35,0000.04,0000.76,-000.08,0000.15,16.2,22.8,02.4,01.6,0671.0,30.9
2021-06-08T08:21:00Z,00000200,00000000,0000.18,0000.13,0000.34,0000.26,0000.09,0000.26,-000.32,0000.00,-000.31,16.2,22.8,02.5,01.6,0671.0,30.9
2021-06-08T08:22:00Z,00000200,00000000,-000.37,0000.18,0000.14,0000.09,0000.08,0000.02,-000.02,0000.02,-000.02,16.2,22.8,02.5,01.7,0671.0,30.9
2021-06-08T08:23:00Z,00000200,00000000,0000.05,-000.01,0000.17,0000.82,0000.14,0000.03,-000.16,-000.49,0000.07,16.2,22.8,02.4,01.6,0671.0,30.9
2021-06-08T08:24:00Z,00000200,00000000,-000.04,-000.12,0000.48,0000.32,-000.05,-000.04,-000.08,0000.58,0000.00,16.2,22.8,02.3,01.5,0671.0,30.9
2021-06-08T08:25:00Z,00000200,00000000,0000.05,0000.13,0000.55,0000.54,0000.01,0000.28,0000.00,0000.06,0000.01,16.2,22.8,02.3,01.5,0671.0,30.9
2021-06-08T08:26:00Z,00000200,00000000,0000.60,0000.36,0000.16,0000.43,0000.06,0000.07,0000.22,-000.35,0000.01,16.2,22.8,02.4,01.6,0671.0,30.9
2021-06-08T08:27:00Z,00000200,00000000,0000.27,0000.35,0000.20,0000.22,-000.06,0000.01,0000.07,-000.11,-000.20,16.2,22.8,02.3,01.5,0671.0,30.9
2021-06-08T08:28:00Z,00000200,00000000,0000.35,0000.58,0000.29,-000.05,0000.03,-000.05,0000.29,0000.25,0000.35,16.2,22.8,02.3,01.6,0671.0,30.9
2021-06-08T08:29:00Z,00000200,00000000,0000.14,0000.37,0000.06,-000.15,0000.07,0000.02,-000.18,0000.08,0000.07,16.2,22.8,02.2,01.5,0671.0,30.9
2021-06-08T08:30:00Z,00000200,00000000,0000.87,0000.25,0000.04,0000.09,0000.05,-000.03,-000.05,0000.15,-000.11,16.2,22.8,02.2,01.5,0671.1,30.9
2021-06-08T08:31:00Z,00000200,00000000,0000.61,0000.47,0000.25,0000.58,0000.07,-000.01,0000.23,-000.04,0000.15,16.2,22.8,02.2,01.5,0671.1,30.9
2021-06-08T08:32:00Z,00000200,00000000,0000.51,0000.21,0000.25,0000.94,0000.39,0000.00,0000.12,0000.04,0000.18,16.2,22.8,02.4,01.6,0671.0,30.9
2021-06-08T08:33:00Z,00000200,00000000,0000.11,0000.36,0000.20,0000.37,0000.21,-000.02,0000.00,0000.03,0000.25,16.2,22.8,02.3,01.5,0671.0,30.9
2021-06-08T08:34:00Z,00000200,00000000,-000.38,0000.12,0000.16,-000.22,-000.00,-000.17,-000.08,0000.09,-000.07,16.2,22.8,02.3,01.5,0671.1,30.9
2021-06-08T08:35:00Z,00000200,00000000,0000.35,0000.26,-000.14,-000.47,0000.18,-000.01,0000.04,0000.13,-000.39,16.2,22.8,02.3,01.6,0671.1,30.9
2021-06-08T08:36:00Z,00000200,01000000,0000.10,0000.17,0000.01,0000.59,0000.01,-000.04,0000.11,-000.29,0000.24,16.2,22.8,02.3,01.6,0671.1,30.9
2021-06-08T08:37:00Z,00000200,01000000,0000.46,0000.32,0000.37,0000.22,0000.02,-000.04,0000.20,0000.33,-000.09,16.2,22.8,02.3,01.5,0671.1,30.9
2021-06-08T08:38:00Z,00000200,00000000,0000.45,0000.20,0000.38,-000.32,0000.02,0000.17,-000.07,-000.25,0000.06,16.2,22.8,02.3,01.5,0671.0,30.9
2021-06-08T08:39:00Z,00000200,00000000,-000.10,0000.18,0000.13,0000.46,0000.05,-000.33,0000.27,0000.36,0000.48,16.2,22.8,02.2,01.5,0671.0,30.9
2021-06-08T08:40:00Z,00000200,00000000,0000.13,0000.17,-000.06,0000.12,-000.04,0000.10,0000.00,0000.39,-000.25,16.2,22.8,02.3,01.5,0671.0,30.9
2021-06-08T08:41:00Z,00000200,00000000,0000.33,0000.35,0000.32,0000.79,0000.10,0000.08,-000.08,-000.47,0000.06,16.2,22.8,02.2,01.5,0671.0,30.9
2021-06-08T08:42:00Z,00000200,00000000,0000.14,0000.13,-000.04,0000.68,0000.04,-000.16,-000.03,0000.42,-000.32,16.2,22.8,02.3,01.5,0671.0,30.9
2021-06-08T08:43:00Z,00000200,00000000,0000.63,0000.22,0000.06,0000.33,-000.03,0000.26,0000.44,0000.09,0000.76,16.2,22.8,02.4,01.6,0671.0,30.9
2021-06-08T08:44:00Z,00000200,00000000,0000.45,0000.07,0000.20,0000.13,-000.20,-000.27,0000.02,-000.10,-000.26,16.2,22.8,02.2,01.5,0671.0,30.9
2021-06-08T08:45:00Z,00000200,00000000,0000.21,0000.03,0000.20,0000.40,0000.01,-000.03,0000.05,0000.32,0000.17,16.3,22.8,02.3,01.6,0671.0,30.9
2021-06-08T08:46:00Z,00000200,00000000,0000.66,0000.19,0000.15,0000.24,0000.34,-000.05,0000.25,0000.05,0000.19,16.3,22.8,02.3,01.6,0671.0,30.9
2021-06-08T08:47:00Z,00000200,00000000,-000.11,0000.16,0000.32,0000.51,0000.26,0000.18,0000.07,0000.20,0000.20,16.3,22.8,02.4,01.6,0671.0,30.9
2021-06-08T08:48:00Z,00000200,00000000,-000.25,0000.29,0000.43,0000.29,0000.17,0000.12,0000.19,-000.11,-000.11,16.3,22.8,02.5,01.7,0671.0,30.9
2021-06-08T08:49:00Z,00000200,00000000,0000.49,0000.01,0000.48,0000.43,-000.05,0000.13,-000.09,0000.01,0000.09,16.3,22.8,02.5,01.7,0671.0,30.9
2021-06-08T08:50:00Z,00000200,00000000,0000.28,0000.29,0000.22,0000.58,0000.25,-000.02,0000.02,-000.16,-000.09,16.3,22.8,02.5,01.6,0671.0,30.9
2021-06-08T08:51:00Z,00000200,00000000,0000.42,0000.26,0000.24,-000.27,-000.05,-000.03,0000.16,0000.58,-000.07,16.3,22.8,02.5,01.7,0671.0,30.9
2021-06-08T08:52:00Z,00000200,00000000,-000.10,0000.22,0000.18,0000.18,0000.14,0000.24,0000.19,0000.00,0000.36,16.3,22.8,02.6,01.8,0671.0,30.9
2021-06-08T08:53:00Z,00000200,00000000,0000.25,-000.09,0000.27,0000.74,0000.07,0000.08,-000.43,-000.47,-000.44,16.3,22.8,02.5,01.6,0671.0,30.9
2021-06-08T08:54:00Z,00000200,00000000,0000.98,0000.23,0000.24,0000.22,0000.11,0000.01,0000.12,0000.32,0000.06,16.3,22.8,02.5,01.7,0671.0,30.9
2021-06-08T08:55:00Z,00000200,00000000,0000.50,0000.08,0000.13,0000.46,0000.28,-000.22,0000.22,-000.11,0000.52,16.3,22.8,02.3,01.6,0671.0,30.9
2021-06-08T08:56:00Z,00000200,00000000,0000.01,0000.12,0000.11,0000.37,0000.12,-000.21,-000.29,-000.00,-000.12,16.3,22.8,02.4,01.6,0671.0,30.9
2021-06-08T08:57:00Z,00000200,40000000,,,,,,,0000.19,-000.12,-000.22,16.4,22.8,02.2,01.5,0671.0,30.9
2021-06-08T08:58:00Z,00000200,60000000,,,,,,,-000.14,-000.08,-000.07,16.1,23.0,02.0,01.3,0670.0,30.9
2021-06-08T08:59:00Z,00000200,20000000,,,,,,,-000.16,0000.13,-000.10,16.1,23.1,02.0,01.3,0670.0,30.9
